EW6205 Weather Reports


time (UTC)temp
C
wind
direction
speed
KPH
gust
KPH
rain 1hr
cm
rain 24hr
cm
rain mn
cm
humidity
%
barometer
mb
20260906212705 32 319 0.0 3.2 0.00 0.00 0.00 42 1008.0
20260906212207 32 321 0.0 1.6 0.00 0.00 0.00 41 1008.0
20260906211705 32 341 0.0 8.0 0.00 0.00 0.00 42 1008.1
20260906210706 31 351 1.6 9.7 0.00 0.00 0.00 42 1008.1
20260906210205 31 331 0.0 9.7 0.00 0.00 0.00 42 1008.2
20260906205705 31 195 0.0 11.3 0.00 0.00 0.00 45 1008.2
20260906204705 31 317 1.6 9.7 0.00 0.00 0.00 46 1008.2
20260906204206 31 297 1.6 8.0 0.00 0.00 0.00 47 1008.2
20260906203706 30 276 1.6 9.7 0.00 0.00 0.00 47 1008.2
20260906203205 30 326 1.6 11.3 0.00 0.00 0.00 48 1008.3
20260906202706 30 312 3.2 11.3 0.00 0.00 0.00 48 1008.4
20260906202207 31 314 1.6 4.8 0.00 0.00 0.00 47 1008.4
20260906201705 31 304 0.0 4.8 0.00 0.00 0.00 48 1008.5
20260906201205 30 204 0.0 6.4 0.00 0.00 0.00 49 1008.6
20260906200707 30 310 1.6 9.7 0.00 0.00 0.00 50 1008.5
20260906200205 30 222 1.6 20.9 0.00 0.00 0.00 51 1008.7
20260906195705 30 208 1.6 20.9 0.00 0.00 0.00 50 1008.8
20260906194705 30 328 0.0 8.0 0.00 0.00 0.00 50 1009.0
20260906193706 30 207 1.6 17.7 0.00 0.00 0.00 52 1009.1
20260906193205 30 245 3.2 17.7 0.00 0.00 0.00 55 1009.2
20260906192705 29 252 3.2 17.7 0.00 0.00 0.00 55 1009.2
20260906190706 28 346 3.2 14.5 0.00 0.00 0.00 60 1009.2
20260906190205 28 217 3.2 14.5 0.00 0.00 0.00 60 1009.3
20260906185205 29 162 1.6 14.5 0.00 0.00 0.00 58 1009.1
20260906184706 29 255 1.6 9.7 0.00 0.00 0.00 58 1009.0
20260906184205 29 238 1.6 9.7 0.00 0.00 0.00 59 1008.8
20260906183705 28 297 1.6 9.7 0.00 0.00 0.00 59 1009.0
20260906183206 28 176 1.6 9.7 0.00 0.00 0.00 57 1009.0
20260906182705 28 125 1.6 8.0 0.00 0.00 0.00 57 1009.0
20260906181707 28 219 1.6 4.8 0.00 0.00 0.00 56 1009.1
20260906181205 28 134 0.0 4.8 0.00 0.00 0.00 56 1009.1
20260906180705 28 165 0.0 8.0 0.00 0.00 0.00 57 1009.2
20260906175705 28 203 0.0 8.0 0.00 0.00 0.00 57 1009.4
20260906175206 28 170 0.0 9.7 0.00 0.00 0.00 56 1009.3
20260906174705 28 160 1.6 9.7 0.00 0.00 0.00 56 1009.2
20260906174207 27 127 1.6 9.7 0.00 0.00 0.00 57 1009.1
20260906173705 27 105 0.0 4.8 0.00 0.00 0.00 57 1009.1
20260906173205 27 173 0.0 4.8 0.00 0.00 0.00 61 1009.1
20260906172706 26 77 0.0 4.8 0.00 0.00 0.00 65 1009.0
20260906172205 26 4 0.0 4.8 0.00 0.00 0.00 68 1009.1
20260906171704 26 316 0.0 8.0 0.00 0.00 0.00 68 1009.3
20260906171206 25 71 0.0 9.7 0.00 0.00 0.00 75 1009.3
20260906170705 25 25 1.6 9.7 0.00 0.00 0.00 77 1009.4
20260906170205 24 314 1.6 8.0 0.00 0.00 0.00 78 1009.4
20260906165706 24 328 1.6 8.0 0.00 0.00 0.00 79 1009.4
20260906165205 23 314 0.0 11.3 0.00 0.00 0.00 79 1009.5
20260906164705 23 318 1.6 11.3 0.00 0.00 0.00 79 1009.9
20260906164206 23 322 3.2 11.3 0.00 0.00 0.00 79 1009.7
20260906163705 23 335 1.6 11.3 0.00 0.00 0.00 79 1009.8
20260906163205 23 307 3.2 11.3 0.00 0.00 0.00 79 1009.8
20260906162707 23 312 3.2 11.3 0.00 0.00 0.00 79 1009.8
20260906162205 23 327 3.2 8.0 0.00 0.00 0.00 79 1010.2
20260906161705 23 324 1.6 1.6 0.00 0.00 0.00 80 1010.0
20260906160705 23 301 0.0 4.8 0.00 0.00 0.00 82 1009.9
20260906160205 23 70 0.0 6.4 0.00 0.00 0.00 82 1009.7
20260906155707 23 73 1.6 6.4 0.00 0.00 0.00 82 1009.3
20260906155204 23 322 0.0 4.8 0.00 0.00 0.00 82 1009.2
20260906154705 23 355 0.0 4.8 0.00 0.00 0.00 84 1009.1
20260906154206 22 50 0.0 4.8 0.00 0.00 0.00 84 1009.4
20260906153705 22 81 0.0 6.4 0.00 0.00 0.00 85 1009.7
20260906153205 22 316 0.0 6.4 0.00 0.00 0.00 86 1010.0
20260906151705 22 323 0.0 1.6 0.00 0.00 0.00 86 1010.3
20260906150705 22 67 0.0 6.4 0.00 0.00 0.00 86 1010.2
20260906145707 21 322 0.0 6.4 0.00 0.00 0.00 88 1011.1
20260906145205 21 334 0.0 6.4 0.00 0.00 0.00 89 1011.1
20260906144706 20 335 1.6 6.4 0.00 0.00 0.00 90 1011.2
20260906144205 20 313 3.2 6.4 0.00 0.00 0.00 90 1011.3
20260906143705 20 326 1.6 3.2 0.00 0.00 0.00 89 1011.6
20260906143206 20 345 0.0 1.6 0.00 0.00 0.00 91 1011.6
20260906142705 20 345 0.0 1.6 0.00 0.00 0.00 91 1011.9
20260906142205 20 345 0.0 3.2 0.00 0.00 0.00 91 1012.3
20260906141204 20 345 1.6 3.2 0.00 0.00 0.00 91 1012.0
20260906140705 20 346 0.0 3.2 0.00 0.00 0.00 91 1011.9
20260906140207 20 349 0.0 0.0 0.00 0.00 0.00 91 1011.8
20260906135705 19 349 0.0 0.0 0.00 0.00 0.00 91 1011.7
20260906135205 19 349 0.0 0.0 0.00 0.00 0.00 91 1011.7
20260906134707 19 349 0.0 0.0 0.00 0.00 0.00 91 1011.6
20260906134205 19 349 0.0 1.6 0.00 0.00 0.00 91 1011.3
20260906133705 19 349 0.0 3.2 0.00 0.00 0.00 91 1011.5
20260906132705 19 349 0.0 3.2 0.00 0.00 0.00 92 1011.1
20260906131707 19 320 0.0 3.2 0.00 0.00 0.00 92 1010.9
20260906131205 19 321 0.0 3.2 0.00 0.00 0.00 92 1010.7
20260906130705 18 321 0.0 3.2 0.00 0.00 0.00 92 1010.7
20260906130206 18 321 0.0 3.2 0.00 0.00 0.00 92 1010.7
20260906125205 18 321 0.0 0.0 0.00 0.00 0.00 92 1011.0
20260906124706 18 321 0.0 0.0 0.00 0.00 0.00 92 1011.1
20260906124205 18 321 0.0 0.0 0.00 0.00 0.00 92 1011.2
20260906123206 18 321 0.0 0.0 0.00 0.00 0.00 92 1011.1
20260906122705 18 321 0.0 1.6 0.00 0.00 0.00 93 1011.2
20260906122205 18 321 0.0 1.6 0.00 0.00 0.00 92 1011.3
20260906121706 18 321 0.0 1.6 0.00 0.00 0.00 92 1011.4
20260906120705 18 321 0.0 1.6 0.00 0.00 0.00 92 1011.3
20260906120206 18 321 0.0 1.6 0.00 0.00 0.00 92 1011.1
20260906115705 18 321 0.0 0.0 0.00 0.00 0.00 92 1011.3
20260906115204 18 321 0.0 0.0 0.00 0.00 0.00 92 1011.1
20260906114206 18 321 0.0 0.0 0.00 0.00 0.00 92 1010.7
20260906113705 18 321 0.0 0.0 0.00 0.00 0.00 92 1010.6
20260906113206 18 321 0.0 0.0 0.00 0.00 0.00 92 1010.6
20260906112705 18 321 0.0 0.0 0.00 0.00 0.00 92 1010.6
20260906112207 18 321 0.0 0.0 0.00 0.00 0.00 92 1010.6
20260906110707 18 321 0.0 1.6 0.00 0.00 0.00 91 1010.7
20260906110205 18 321 0.0 1.6 0.00 0.00 0.00 91 1010.7
20260906105206 18 321 0.0 0.0 0.00 0.00 0.00 91 1010.9
20260906104705 18 321 0.0 3.2 0.00 0.00 0.00 91 1010.7
20260906104205 18 321 0.0 3.2 0.00 0.00 0.00 91 1010.6
20260906103706 18 321 0.0 3.2 0.00 0.00 0.00 91 1010.6
20260906103204 19 320 0.0 6.4 0.00 0.00 0.00 91 1010.7
20260906102705 19 320 0.0 6.4 0.00 0.00 0.00 91 1010.6
20260906102207 19 321 0.0 6.4 0.00 0.00 0.00 91 1010.6
20260906101705 19 321 0.0 1.6 0.00 0.00 0.00 91 1010.6
20260906101206 19 320 0.0 6.4 0.00 0.00 0.00 91 1010.5
20260906100705 19 320 0.0 6.4 0.00 0.00 0.00 90 1010.5
20260906100205 19 321 0.0 4.8 0.00 0.00 0.00 90 1010.5
20260906095706 19 323 0.0 4.8 0.00 0.00 0.00 90 1010.5
20260906095205 19 324 0.0 4.8 0.00 0.00 0.00 90 1010.5
20260906094705 19 325 0.0 4.8 0.00 0.00 0.00 90 1010.5
20260906094206 19 323 0.0 3.2 0.00 0.00 0.00 90 1010.6
20260906093705 19 324 0.0 1.6 0.00 0.00 0.00 90 1010.5
20260906093205 19 328 0.0 1.6 0.00 0.00 0.00 90 1010.5
20260906092706 19 328 0.0 3.2 0.00 0.00 0.00 90 1010.6
20260906092205 19 328 0.0 3.2 0.00 0.00 0.00 90 1010.6
20260906091705 19 328 0.0 3.2 0.00 0.00 0.00 89 1010.7
20260906091206 20 325 0.0 0.0 0.00 0.00 0.00 89 1010.7
20260906085706 20 328 0.0 3.2 0.00 0.00 0.00 89 1010.6
20260906085205 20 325 0.0 1.6 0.00 0.00 0.00 89 1010.7
20260906084706 20 321 0.0 3.2 0.00 0.00 0.00 89 1010.7
20260906084205 20 320 0.0 11.3 0.00 0.00 0.00 89 1010.7
20260906083206 20 322 1.6 11.3 0.00 0.00 0.00 88 1010.9
20260906082705 20 314 0.0 3.2 0.00 0.00 0.00 88 1010.7
20260906082205 20 308 0.0 4.8 0.00 0.00 0.00 88 1010.7
20260906081706 20 14 0.0 4.8 0.00 0.00 0.00 88 1010.7
20260906081205 20 320 0.0 4.8 0.00 0.00 0.00 88 1010.9
20260906080705 20 321 0.0 4.8 0.00 0.00 0.00 88 1010.9
20260906080206 20 313 0.0 4.8 0.00 0.00 0.00 88 1010.9
20260906075705 20 319 0.0 3.2 0.00 0.00 0.00 88 1011.0
20260906075205 20 318 0.0 3.2 0.00 0.00 0.00 88 1010.9
20260906074706 20 319 0.0 3.2 0.00 0.00 0.00 87 1011.0
20260906074205 20 319 0.0 3.2 0.00 0.00 0.00 87 1011.1
20260906073705 20 319 0.0 3.2 0.00 0.00 0.00 87 1011.2
20260906073206 21 319 0.0 0.0 0.00 0.00 0.00 87 1011.4
20260906072705 21 319 0.0 0.0 0.00 0.00 0.00 87 1011.1
20260906072205 21 321 0.0 3.2 0.00 0.00 0.00 86 1011.1
20260906071706 21 319 0.0 3.2 0.00 0.00 0.00 86 1011.1
20260906071205 21 319 0.0 3.2 0.00 0.00 0.00 86 1011.1
20260906070705 21 321 0.0 3.2 0.00 0.00 0.00 86 1011.2
20260906070206 21 324 0.0 4.8 0.00 0.00 0.00 86 1011.3
20260906065205 21 328 0.0 6.4 0.00 0.00 0.00 86 1011.5
20260906064707 21 319 0.0 6.4 0.00 0.00 0.00 85 1011.4
20260906064205 21 326 0.0 4.8 0.00 0.00 0.00 85 1011.5
20260906063207 21 318 0.0 4.8 0.00 0.00 0.00 85 1011.4
20260906062705 21 321 0.0 4.8 0.00 0.00 0.00 85 1011.4
20260906062204 21 23 0.0 6.4 0.00 0.00 0.00 84 1011.5
20260906061706 22 333 0.0 6.4 0.00 0.00 0.00 84 1011.5
20260906061204 22 328 0.0 6.4 0.00 0.00 0.00 84 1011.5
20260906060705 22 332 0.0 0.0 0.00 0.00 0.00 84 1011.5
20260906055705 22 321 0.0 11.3 0.00 0.00 0.00 84 1011.5
20260906054705 22 321 0.0 4.8 0.00 0.00 0.00 84 1011.4
20260906054205 22 352 0.0 1.6 0.00 0.00 0.00 84 1011.5
20260906053707 22 354 0.0 1.6 0.00 0.00 0.00 83 1011.5
20260906053205 22 354 0.0 1.6 0.00 0.00 0.00 83 1011.5
20260906052705 22 354 0.0 0.0 0.00 0.00 0.00 83 1011.5
20260906052206 22 354 0.0 0.0 0.00 0.00 0.00 83 1011.4
20260906051205 22 354 0.0 0.0 0.00 0.00 0.00 82 1011.4
20260906050706 22 354 0.0 0.0 0.00 0.00 0.00 81 1011.3
20260906050205 22 353 0.0 0.0 0.00 0.00 0.00 81 1011.3
20260906045705 22 335 0.0 1.6 0.00 0.00 0.00 81 1011.3
20260906045206 22 328 0.0 1.6 0.00 0.00 0.00 80 1011.2
20260906044705 22 302 0.0 3.2 0.00 0.00 0.00 80 1011.3
20260906044205 23 337 0.0 9.7 0.00 0.00 0.00 80 1011.2
20260906043205 23 63 0.0 3.2 0.00 0.00 0.00 79 1011.1
20260906042207 23 266 0.0 8.0 0.00 0.00 0.00 79 1011.1
20260906041705 23 304 0.0 8.0 0.00 0.00 0.00 79 1011.2
20260906040204 23 338 0.0 3.2 0.00 0.00 0.00 79 1011.4
20260906035705 23 338 0.0 3.2 0.00 0.00 0.00 79 1011.5
20260906035206 23 338 0.0 3.2 0.00 0.00 0.00 79 1011.5
20260906034205 23 347 0.0 1.6 0.00 0.00 0.00 78 1011.5
20260906033706 23 345 0.0 6.4 0.00 0.00 0.00 78 1011.3
20260906033205 23 345 0.0 6.4 0.00 0.00 0.00 78 1011.3
20260906032705 23 102 0.0 8.0 0.00 0.00 0.00 77 1011.2
20260906032207 23 71 0.0 8.0 0.00 0.00 0.00 77 1011.2
20260906031705 23 63 1.6 8.0 0.00 0.00 0.00 77 1011.2
20260906031205 24 81 0.0 4.8 0.00 0.00 0.00 77 1011.1
20260906030707 24 90 0.0 16.1 0.00 0.00 0.00 77 1011.0
20260906030205 24 73 0.0 16.1 0.00 0.00 0.00 77 1011.0
20260906025705 24 20 1.6 16.1 0.00 0.00 0.00 76 1011.0
20260906025206 24 20 1.6 8.0 0.00 0.00 0.00 76 1011.0
20260906024705 25 60 0.0 6.4 0.00 0.00 0.00 75 1011.0
20260906024205 25 16 0.0 8.0 0.00 0.00 0.00 75 1011.0
20260906023707 25 75 0.0 8.0 0.00 0.00 0.00 75 1011.0
20260906023205 25 94 0.0 8.0 0.00 0.00 0.00 74 1010.9
20260906022705 25 47 0.0 6.4 0.00 0.00 0.00 74 1010.9
20260906022206 25 72 0.0 6.4 0.00 0.00 0.00 73 1010.9
20260906021205 26 11 0.0 4.8 0.00 0.00 0.00 72 1010.6
20260906020706 26 68 0.0 4.8 0.00 0.00 0.00 72 1010.5
20260906020205 26 89 0.0 8.0 0.00 0.00 0.00 71 1010.4
20260906015705 26 102 0.0 8.0 0.00 0.00 0.00 70 1010.4
20260906015207 26 90 0.0 4.8 0.00 0.00 0.00 69 1010.2
20260906014205 26 320 1.6 8.0 0.00 0.00 0.00 69 1010.1
20260906013707 26 302 1.6 12.9 0.00 0.00 0.00 69 1010.0
20260906013205 27 314 1.6 12.9 0.00 0.00 0.00 69 1009.8
20260906012705 27 321 4.8 12.9 0.00 0.00 0.00 68 1009.8
20260906012207 27 332 3.2 12.9 0.00 0.00 0.00 67 1009.7
20260906011705 27 328 1.6 9.7 0.00 0.00 0.00 66 1009.6
20260906011205 27 284 0.0 8.0 0.00 0.00 0.00 66 1009.6
20260906010205 28 330 3.2 19.3 0.00 0.00 0.00 64 1009.5
20260906005704 28 359 1.6 19.3 0.00 0.00 0.00 64 1009.4
20260906005205 28 321 1.6 19.3 0.00 0.00 0.00 63 1009.4
20260906004704 28 328 1.6 12.9 0.00 0.00 0.00 62 1009.4
20260906003704 30 317 0.0 9.7 0.00 0.00 0.00 60 1009.4
20260906003205 30 325 1.6 9.7 0.00 0.00 0.00 59 1009.3
20260906002706 30 313 1.6 9.7 0.00 0.00 0.00 59 1009.3
20260906002205 30 321 0.0 17.7 0.00 0.00 0.00 59 1009.3
20260906000705 30 307 4.8 12.9 0.00 0.00 0.00 58 1009.2
20260906000205 30 311 3.2 9.7 0.00 0.00 0.00 58 1009.2
20260905235707 30 333 1.6 9.7 0.00 0.00 0.00 58 1009.1
20260905234705 30 330 3.2 12.9 0.00 0.00 0.00 58 1009.1
20260905234207 30 328 3.2 11.3 0.00 0.00 0.00 58 1009.1
20260905233705 30 322 3.2 11.3 0.00 0.00 0.00 58 1009.1
20260905233205 30 310 3.2 14.5 0.00 0.00 0.00 58 1009.0
20260905232706 30 321 6.4 19.3 0.00 0.00 0.00 58 1009.0
20260905232205 30 328 6.4 19.3 0.00 0.00 0.00 58 1009.0
20260905231206 30 338 6.4 19.3 0.00 0.00 0.00 58 1008.8
20260905230705 30 321 8.0 19.3 0.00 0.00 0.00 58 1008.8
20260905230205 30 340 6.4 19.3 0.00 0.00 0.00 57 1008.8
20260905225706 30 328 4.8 12.9 0.00 0.00 0.00 57 1008.8
20260905225205 31 330 3.2 9.7 0.00 0.00 0.00 57 1008.7
20260905224705 31 335 1.6 9.7 0.00 0.00 0.00 56 1008.7
20260905224207 31 305 1.6 11.3 0.00 0.00 0.00 57 1008.7
20260905223705 30 300 3.2 11.3 0.00 0.00 0.00 57 1008.7
20260905223205 30 302 3.2 11.3 0.00 0.00 0.00 57 1008.8
20260905222205 30 330 3.2 11.3 0.00 0.00 0.00 57 1009.0
20260905221705 30 340 3.2 11.3 0.00 0.00 0.00 58 1008.8
20260905221207 30 315 4.8 11.3 0.00 0.00 0.00 59 1009.0
20260905220705 30 327 3.2 8.0 0.00 0.00 0.00 58 1009.0
20260905220205 30 314 1.6 11.3 0.00 0.00 0.00 59 1009.0
20260905215707 30 296 3.2 11.3 0.00 0.00 0.00 59 1009.1
20260905215205 29 337 4.8 11.3 0.00 0.00 0.00 59 1009.1
20260905214705 29 304 3.2 9.7 0.00 0.00 0.00 58 1009.1
20260905213705 29 328 1.6 12.9 0.00 0.00 0.00 60 1009.1
20260905213205 29 291 4.8 12.9 0.00 0.00 0.00 60 1009.1